Atlantic - Newfoundland: Past 24 Hour Conditions

 

St. John's Int'l Airport

07:30 AM NDT 01 October 2014
This table is a summary of hourly weather conditions for the past 24 hours.
Date / Time
(NDT)
Wind(knots) Conditions Visibility(km) Pressure(kPa) Air tempC) Relative humidity(%) Dew pointC)
01 October 2014
7:30 WNW 13 Mainly Sunny 24 101.7 9 98 9
6:30 WNW 12 Mainly Clear 24 101.7 9 98 9
5:30 W 9 Partly Cloudy 24 101.6 10 99 10
4:30 W 8 Mist 6 101.6 10 99 10
3:30 WNW 9 Light Drizzle 3 101.6 11 99 11
2:30 WNW 7 Light Drizzle 6 101.6 11 99 11
1:30 W 7 Light Drizzle 6 101.6 12 98 12
0:30 SSW 11 gust 20 Light Drizzle 6 101.7 12 99 12
30 September 2014
23:30 S 13 Light Drizzle 6 101.7 11 99 11
22:30 SSE 13 Light Drizzle 1 101.9 10 99 10
21:30 SSE 15 Light Drizzle 6 102.0 10 98 9
20:30 SSE 9 Light Drizzle 10 102.0 9 96 9
19:30 SSE 9 Light Drizzle 10 102.1 9 94 8
18:30 SSE 10 Cloudy 24 102.2 9 91 7
17:30 SSE 11 Mostly Cloudy 24 102.2 9 85 6
16:30 SSE 10 Mostly Cloudy 24 102.3 8 83 6
15:30 S 10 gust 15 Mostly Cloudy 24 102.4 9 77 5
14:30 SSE 11 gust 17 Mostly Cloudy 24 102.4 8 76 4
13:30 S 13 Mostly Cloudy 24 102.5 8 69 3
12:30 SSE 13 Mostly Cloudy 24 102.6 8 67 2
11:30 SE 8 Mostly Cloudy 24 102.7 7 69 2
10:30 SSE 8 Mostly Cloudy 24 102.8 7 69 2
9:30 SSE 6 Mostly Cloudy 24 102.8 6 75 2
8:30 SSE 5 Mostly Cloudy 24 102.8 5 78 2
7:30 SSE 5 Mostly Cloudy 24 102.7 4 81 1
 
Map of Atlantic - Newfoundland marine weather areas Southwestern Grand Banks - 44138 Banquereau - 44139 Tail of the Bank - 44140 Nickerson Bank - 44251 Northeast Burgeo Bank - 44255 Blanc-Sablon Airport Cap Whittle Chevery Natashquan Airport Heath Point Miscou Island Grand Étang Ingonish Beach North Mountain St.Paul Island J.A. Douglas McCurdy Sydney Airport Charlottetown Airport East Point North Cape Argentia Bonavista Burgeo Cape Race Corner Brook Daniel's Harbour Englee Ferolle Point La Scie Port aux Basques Rocky Harbour Sagona Island St. Anthony Airport St. John's Int'l Airport St. Lawrence Stephenville Airport Twillingate Winterland Wreckhouse Cartwright Airport Mary's Harbour Grates Cove Pool's Island Marticot Island Long Pond Îles de la Madeleine Airport
Legend: buoyBuoy land stationLand Station